Погода в Локте

Россия / Брянская область     52°33′39″N   34°34′37″E
темп.,
°C
ветер,
м/с
пор.,
м/с
влажн.,
%
обл.,
%
осадки,
мм/ч
давл.,
гПа
погр.,
м
10 мая, пн
пн1000:00+3сз39785 0.0 1024169
03:00+2ссз36800 0.0 1026111
06:00+2ссз26800 0.0 1026128
09:00+10с35550 0.0 1027536
12:00+13ссв58412 0.0 10261791
15:00+14ссв69392 0.0 10251903
18:00+14ссв59544 0.0 10231368
21:00+8ссв3107591 0.0 1025216
11 мая, вт
вт1100:00+7ссв5147154 0.0 1024410
03:00+7ссв4137635 0.0 1023327
06:00+6ссв514825 0.0 1023371
09:00+12ссв7127012 0.0 1022507
12:00+17св711658 0.0 1021926
15:00+18всв61068100 0.0 10211403
18:00+11вюв5108694 0.1 1023526
21:00+8в310960 0.1 1024303
12 мая, ср
ср1200:00+7в512912 0.0 1024506
03:00+7всв26835 0.0 1024253
06:00+5всв389286 0.0 1025212
09:00+11всв576963 0.0 1024665
12:00+13св5661100 0.0 10211268
15:00+10ссв4573100 0.4 10191085
18:00+7юв2394100 2.9 1017236
21:00+8вюв41194100 3.7 1016565
13 мая, чт
чт1300:00+6в4119841 0.0 1016338
03:00+6вюв4119799 0.0 1015392
06:00+8юв5109451 1.2 1015608
09:00+9ююв578461 1.3 1016656
12:00+14ююв4659100 0.0 10161346
15:00+16ююв465299 0.0 10151652
18:00+16ююв366438 0.0 1014947
21:00+11вюв228364 0.0 101517
14 мая, пт
пт1400:00+10вюв3795100 0.0 1015122
03:00+10вюв3796100 0.0 1014137
06:00+11вюв4129597 0.1 1014333
09:00+14вюв41192100 0.8 1013432
12:00+19юв697726 2.1 10121024
15:00+20ююв587734 5.1 10111108
18:00+19ю3683100 1.3 1010498
21:00+15ююз349396 1.5 101170